Location: Gradaro
(45.0833°N, 10.8833°E)
Time: 20:52:28
(UTC+00:00)

Cosmos 2327 Rocket - Pass Details

Date: 29 November 2020
Orbit: 945 x 1007 km, 83.0° (Epoch: 20 January)

Event Time Altitude Azimuth Distance (km) Brightness Sun altitude
Rises 05:26:33 0° 199° (SSW) 3,614 7.5 -11.4°
Reaches altitude 10° 05:29:05 10° 203° (SSW) 2,667 6.8 -11.0°
Maximum altitude 05:35:04 58° 282° (WNW) 1,096 4.5 -10.0°
Drops below altitude 10° 05:41:05 10° 1° (N) 2,676 6.6 -9.0°
Sets 05:43:38 0° 6° (N) 3,627 7.3 -8.6°
